Location: Nelson
(41.2830°S, 173.2830°E)
Time: 16:15:53
(UTC+12:00)

SL-8 R/B - Pass Details

Date: 14 May 2021
Orbit: 656 x 667 km, 48.4° (Epoch: 19 June)

Event Time Altitude Azimuth Distance (km) Brightness Sun altitude
Rises 18:28:24 0° 301° (WNW) 3,008 8.6 -13.2°
Reaches altitude 10° 18:30:45 10° 301° (WNW) 2,099 7.5 -13.6°
Maximum altitude 18:35:37 88° 32° (NNE) 680 3.7 -14.5°
Enters shadow 18:38:40 23° 119° (ESE) 1,420 4.8 -15.0°
